Wind_Speed
10 10 11 13 13 14 15 16 18 19 22 23 23 23 24 24 24 25 25 25 25 24 23 23 22 22 22 21 21 21 22 22 22 23 24 24 25 26 27 28 28 28 29
11 11 11 12 13 13 14 16 17 19 20 22 23 24 25 25 25 25 26 26 25 25 25 25 25 25 24 24 24 24 24 24 24 25 26 26 26 27 28 28 28 29 30
11 11 11 11 12 13 14 15 16 18 20 21 23 23 24 25 25 25 25 26 27 27 27 27 27 26 26 26 26 26 27 27 27 28 28 29 29 29 29 30 30 31 32
12 12 11 11 11 11 12 14 15 17 19 21 22 23 23 24 25 26 26 26 27 28 27 28 28 28 28 29 28 29 29 30 30 30 30 31 32 32 32 33 34 34 35
12 12 11 12 12 12 12 13 15 17 18 18 20 21 23 23 24 25 26 26 28 28 28 28 28 29 29 30 31 32 32 32 32 32 32 33 34 35 36 36 36 37 38
13 13 12 12 12 12 12 13 14 15 16 17 19 19 21 22 23 24 25 26 27 28 28 29 30 31 31 32 32 32 33 34 34 34 35 36 37 38 39 39 39 39 40
14 14 14 14 14 13 13 14 14 15 16 17 18 20 20 21 23 24 25 26 27 27 29 30 31 31 32 33 33 34 35 36 37 38 38 39 40 40 41 40 41 42 43
14 15 15 16 15 15 15 15 16 17 17 18 19 21 22 22 23 24 25 26 28 29 30 30 31 31 32 33 35 35 36 37 38 39 40 41 41 41 42 43 43 44 45
16 16 16 16 16 16 16 17 18 18 18 18 20 22 22 22 24 25 26 28 29 30 30 31 31 31 33 33 34 36 38 39 40 41 42 43 44 44 45 46 46 47 47
18 19 18 18 17 16 16 16 17 17 18 19 20 21 22 22 23 24 26 27 28 29 30 30 31 32 33 35 36 37 37 39 40 42 43 44 44 45 47 48 49 49 50
18 19 20 19 18 17 16 15 15 16 17 19 20 21 21 22 23 25 26 27 27 28 29 29 30 32 33 34 36 37 39 40 41 43 45 46 46 48 49 50 51 53 54
17 17 19 19 19 18 18 18 18 18 18 19 20 20 21 22 23 25 26 26 26 27 28 29 31 32 34 35 37 39 41 43 44 45 47 48 49 50 52 53 54 55 56
18 18 19 19 20 20 19 19 19 20 20 21 22 23 23 24 24 25 27 27 28 30 31 32 33 34 35 37 38 41 42 43 45 47 48 50 51 52 53 54 55 56 57
17 18 18 18 19 19 20 20 20 21 21 22 22 23 23 23 24 26 27 29 29 30 32 32 34 35 37 38 40 42 43 45 47 48 49 50 52 52 53 54 54 55 55
17 17 18 19 19 19 20 20 21 22 22 23 23 23 24 24 25 27 28 30 31 32 33 34 35 37 39 40 42 43 44 46 47 48 49 49 49 49 50 52 53 53 53
17 17 17 18 18 19 19 20 20 21 21 22 23 25 26 27 28 29 30 31 31 33 34 36 37 39 40 40 41 42 43 44 45 46 46 46 47 47 48 49 49 49 49
16 17 18 18 18 19 19 20 20 21 22 23 25 26 27 28 29 30 31 32 33 34 35 36 38 39 40 40 41 41 42 42 43 44 44 45 45 45 46 46 46 47 47
17 18 18 18 18 18 19 20 21 22 22 24 25 27 28 29 31 32 32 33 34 35 36 38 39 40 41 41 41 42 42 42 43 43 43 43 43 43 43 43 43 44 43
18 18 18 19 19 19 20 21 22 23 25 26 27 28 29 31 31 32 33 34 36 37 38 39 40 40 41 42 42 42 42 42 41 41 41 41 41 41 42 41 40 40 39
17 17 17 18 19 20 22 23 24 25 26 27 29 30 31 32 33 34 35 36 37 38 39 40 41 41 42 42 42 42 41 40 40 39 40 40 40 40 39 39 38 38 37
17 17 18 19 21 22 23 24 25 26 28 29 30 31 33 34 35 36 37 38 38 39 39 40 40 40 41 40 40 40 40 40 40 40 40 39 39 38 38 37 37 37 36
18 19 21 22 23 24 24 25 26 28 29 30 31 32 33 34 35 36 37 38 38 38 39 39 39 39 39 40 40 40 40 40 40 40 39 38 38 37 37 36 36 35 33
20 21 22 23 23 24 25 26 28 29 30 31 32 33 34 35 36 37 37 38 38 38 38 39 39 39 39 39 39 39 39 39 38 37 37 36 35 35 34 33 32 31 30
20 21 22 23 24 25 26 27 29 30 31 32 32 33 34 35 36 36 36 37 37 37 38 38 38 38 38 38 38 37 37 36 35 35 33 32 32 32 30 29 27 27 26
21 22 23 24 25 27 28 29 30 31 32 32 33 34 34 35 35 35 35 35 35 36 36 37 36 36 36 36 35 34 33 32 31 30 29 29 28 27 26 25 25 24 24
23 24 25 26 27 29 30 31 31 32 32 33 33 34 34 34 34 34 34 34 34 35 35 34 34 34 33 32 31 30 29 29 28 27 26 25 25 24 24 23 23 22 23
Wind_Direction
257 253 247 244 241 241 240 237 232 232 231 230 233 236 237 237 238 240 241 243 244 247 250 251 253 256 259 260 262 263 266 268 269 270 272 272 273 274 275 275 276 275 277
258 254 249 246 244 243 241 235 234 234 233 232 234 237 238 240 242 243 244 246 247 248 250 252 255 257 260 262 265 266 267 268 269 270 272 273 273 275 276 277 277 278 279
255 252 253 254 251 245 241 236 235 236 237 238 238 238 239 240 241 243 245 246 248 250 251 253 256 258 262 264 265 267 267 268 269 270 272 273 273 275 276 277 278 278 279
250 249 254 254 253 250 247 243 241 241 242 241 240 238 239 241 244 245 248 250 251 252 253 255 257 260 263 265 266 268 270 269 269 270 272 274 274 275 277 278 279 280 280
252 250 254 254 256 254 253 250 246 244 244 244 240 239 240 244 247 249 250 252 254 254 255 258 261 264 264 266 267 268 270 271 271 271 272 274 275 276 277 278 278 279 280
256 254 253 256 257 256 255 256 255 251 248 247 244 244 246 248 251 253 255 256 258 258 260 263 265 266 267 268 270 271 273 273 273 273 273 275 276 277 277 277 277 278 279
255 253 251 253 255 257 257 255 255 255 256 254 251 250 252 252 254 258 260 261 262 264 263 264 267 268 269 268 269 271 272 273 273 274 275 276 277 277 277 278 278 278 278
254 252 252 254 256 257 257 258 257 256 256 256 255 254 255 257 258 260 261 262 264 265 266 268 271 269 269 270 271 272 272 274 275 276 277 278 278 278 278 278 278 278 279
253 252 253 256 258 257 257 258 258 260 262 262 262 261 260 259 261 264 265 266 268 268 270 271 272 271 272 273 275 276 276 276 276 276 277 278 278 278 278 279 279 279 280
254 251 253 256 259 260 261 261 261 263 265 266 267 266 264 262 263 266 267 268 269 270 272 273 273 275 276 276 277 277 278 279 278 278 279 279 280 280 280 280 280 280 281
259 256 255 256 256 257 259 263 265 267 269 270 272 271 268 265 267 269 271 272 273 273 275 276 277 278 279 279 280 280 279 279 280 281 281 280 281 282 282 282 282 282 282
258 257 256 255 253 255 260 264 266 269 272 275 275 274 272 272 272 272 274 275 277 278 278 280 281 281 281 282 282 281 281 282 283 283 282 282 283 284 283 283 283 283 284
255 256 259 258 254 255 260 263 266 269 273 274 274 274 274 273 275 277 278 278 279 281 281 282 282 283 283 284 285 284 285 285 286 286 286 285 285 285 284 284 284 284 285
256 257 258 259 258 260 262 264 266 270 273 275 275 275 275 275 278 280 280 280 281 283 284 284 284 286 287 287 287 286 287 288 288 288 288 287 286 286 286 286 286 286 286
257 257 258 259 262 264 263 264 267 269 271 274 278 279 278 278 282 284 284 284 285 286 286 286 287 289 290 291 290 289 289 290 291 291 291 292 292 291 289 288 288 287 287
257 259 259 260 264 265 267 269 269 270 273 276 278 279 280 282 284 285 285 286 287 288 289 289 291 291 292 293 294 294 293 293 293 293 293 293 293 293 293 292 292 292 291
258 259 259 260 264 266 269 270 271 273 276 279 280 281 283 284 285 286 286 287 289 290 292 292 293 294 295 295 296 296 296 296 296 296 295 295 295 295 295 295 295 295 295
257 260 261 264 267 268 270 271 273 275 278 281 283 284 285 287 288 289 290 292 293 294 294 295 295 296 297 297 297 298 298 297 297 297 297 297 298 298 298 298 298 297 297
260 262 265 266 269 272 273 275 277 280 284 286 287 288 289 290 291 293 294 295 296 296 297 297 297 297 298 298 299 299 298 298 298 298 298 298 299 299 300 300 300 300 299
263 266 267 270 273 275 278 280 283 285 287 289 290 291 292 293 295 297 298 298 298 299 299 299 299 300 300 300 300 300 299 299 298 298 298 299 299 300 300 300 300 300 300
266 268 271 274 277 280 282 284 287 290 292 293 294 294 295 297 298 299 300 300 300 301 301 301 301 301 301 301 300 300 300 299 299 299 299 300 300 300 300 301 302 301 301
268 271 275 278 282 284 286 289 291 294 295 296 297 297 298 299 300 300 301 301 301 301 302 302 302 302 301 301 301 300 300 300 300 300 300 300 300 300 301 301 302 303 303
273 277 280 283 285 287 289 292 294 296 297 298 298 299 300 301 301 302 302 303 303 303 304 304 303 303 302 302 301 301 301 301 301 301 302 302 301 301 302 303 305 305 305
279 282 284 286 288 291 294 296 297 298 298 299 299 300 301 302 303 303 304 305 305 305 305 305 306 305 305 305 304 303 303 303 302 302 303 302 302 304 304 305 307 307 308
283 287 289 291 292 294 296 297 298 299 299 300 301 301 302 303 304 305 306 306 306 306 307 308 308 307 308 307 307 306 306 306 306 306 304 304 304 305 306 307 308 309 310
288 289 291 292 294 295 297 298 299 299 300 300 301 302 303 304 305 306 307 307 307 308 308 309 309 310 311 311 310 308 309 310 310 309 307 306 306 307 307 308 309 309 312
Height
5826 5826 5827 5828 5829 5830 5832 5833 5835 5838 5840 5843 5845 5848 5850 5852 5854 5856 5858 5859 5861 5863 5864 5865 5866 5867 5868 5868 5868 5868 5868 5869 5868 5868 5867 5866 5866 5866 5865 5864 5864 5863 5862
5824 5824 5825 5825 5826 5827 5829 5830 5832 5834 5836 5838 5841 5843 5845 5847 5849 5851 5852 5854 5856 5857 5859 5860 5861 5861 5862 5862 5863 5863 5863 5863 5862 5862 5861 5860 5860 5859 5859 5858 5857 5856 5855
5822 5822 5822 5822 5823 5824 5825 5827 5828 5830 5832 5834 5836 5838 5840 5841 5843 5845 5847 5848 5850 5851 5852 5853 5854 5855 5856 5856 5856 5856 5856 5856 5856 5855 5854 5853 5853 5852 5852 5851 5849 5848 5847
5819 5820 5820 5821 5821 5822 5822 5824 5825 5826 5828 5830 5831 5833 5835 5837 5838 5840 5841 5842 5844 5845 5846 5847 5848 5849 5849 5849 5849 5849 5849 5849 5848 5848 5847 5846 5845 5844 5844 5842 5841 5840 5838
5817 5817 5818 5818 5819 5819 5820 5821 5822 5823 5824 5825 5826 5828 5830 5832 5833 5835 5836 5837 5838 5839 5839 5840 5841 5842 5842 5842 5842 5842 5841 5841 5840 5840 5839 5838 5837 5836 5835 5833 5832 5830 5829
5813 5814 5815 5815 5816 5816 5817 5817 5818 5819 5820 5821 5822 5824 5825 5827 5828 5829 5830 5831 5832 5832 5833 5834 5834 5834 5834 5834 5834 5833 5833 5832 5832 5831 5830 5829 5828 5826 5825 5823 5822 5820 5818
5810 5811 5812 5812 5813 5813 5814 5814 5815 5816 5816 5817 5818 5819 5820 5822 5823 5824 5824 5825 5825 5826 5826 5826 5826 5826 5825 5825 5825 5824 5824 5823 5822 5822 5820 5819 5817 5815 5814 5812 5810 5809 5807
5807 5808 5808 5809 5809 5809 5810 5811 5811 5812 5812 5813 5814 5815 5816 5817 5817 5818 5819 5819 5819 5819 5819 5819 5819 5818 5818 5817 5816 5815 5814 5813 5812 5811 5810 5808 5806 5804 5802 5801 5798 5797 5795
5803 5804 5805 5805 5805 5806 5806 5807 5807 5807 5808 5808 5809 5810 5810 5811 5811 5812 5812 5812 5812 5812 5811 5811 5811 5811 5809 5808 5807 5806 5804 5803 5801 5800 5798 5796 5794 5792 5790 5788 5786 5783 5781
5799 5800 5801 5801 5802 5802 5802 5803 5803 5804 5804 5804 5804 5804 5804 5805 5806 5806 5806 5805 5805 5804 5804 5804 5803 5802 5801 5799 5798 5796 5795 5793 5791 5789 5787 5785 5782 5780 5777 5775 5772 5769 5767
5794 5795 5796 5797 5797 5798 5798 5799 5799 5799 5799 5799 5799 5799 5799 5799 5800 5799 5799 5798 5798 5797 5797 5796 5795 5793 5792 5790 5788 5786 5784 5782 5780 5777 5775 5772 5769 5767 5764 5761 5757 5754 5751
5789 5790 5791 5792 5793 5793 5794 5794 5794 5794 5794 5794 5794 5793 5793 5793 5793 5792 5792 5791 5791 5790 5789 5788 5786 5784 5783 5781 5778 5776 5773 5771 5768 5765 5762 5759 5756 5752 5749 5746 5742 5739 5735
5784 5785 5786 5787 5787 5788 5789 5789 5789 5789 5789 5788 5788 5788 5787 5787 5786 5786 5785 5784 5783 5782 5781 5779 5777 5775 5773 5770 5768 5765 5762 5759 5756 5752 5749 5745 5741 5738 5734 5730 5726 5722 5718
5780 5780 5781 5781 5782 5783 5784 5784 5784 5784 5783 5783 5782 5781 5781 5780 5780 5779 5778 5776 5775 5773 5772 5770 5767 5765 5763 5760 5757 5754 5750 5747 5743 5739 5735 5731 5727 5723 5719 5715 5710 5706 5702
5775 5775 5776 5776 5777 5777 5778 5778 5778 5778 5777 5777 5776 5775 5774 5773 5772 5771 5770 5768 5766 5764 5762 5760 5758 5755 5752 5749 5745 5741 5737 5733 5729 5725 5720 5716 5712 5707 5703 5699 5695 5691 5687
5769 5770 5771 5771 5772 5772 5772 5772 5772 5772 5771 5770 5770 5769 5768 5766 5765 5763 5762 5760 5758 5755 5753 5750 5747 5744 5741 5737 5733 5729 5725 5720 5716 5711 5707 5703 5698 5693 5689 5684 5680 5676 5672
5764 5765 5766 5766 5767 5767 5767 5766 5766 5765 5765 5764 5763 5762 5760 5759 5757 5755 5753 5751 5749 5746 5743 5740 5736 5733 5729 5725 5721 5717 5713 5708 5704 5699 5695 5690 5685 5681 5676 5671 5667 5662 5658
5759 5760 5761 5761 5761 5761 5761 5760 5760 5759 5758 5757 5756 5754 5752 5751 5749 5746 5744 5741 5739 5736 5732 5729 5725 5722 5718 5713 5709 5705 5701 5696 5691 5687 5682 5677 5673 5668 5663 5659 5654 5650 5645
5754 5755 5756 5756 5756 5756 5755 5754 5754 5753 5751 5750 5748 5747 5745 5742 5740 5737 5734 5732 5728 5725 5721 5718 5714 5710 5706 5702 5697 5693 5688 5684 5679 5675 5670 5666 5661 5657 5652 5647 5643 5638 5634
5750 5750 5750 5751 5750 5750 5749 5748 5747 5745 5744 5742 5740 5738 5736 5733 5731 5728 5725 5721 5718 5714 5710 5706 5702 5698 5694 5689 5685 5681 5676 5672 5668 5663 5659 5655 5650 5646 5641 5637 5632 5628 5624
5745 5745 5745 5745 5744 5743 5742 5741 5739 5738 5736 5734 5731 5729 5727 5724 5721 5717 5714 5711 5707 5703 5699 5695 5691 5687 5682 5678 5673 5669 5665 5661 5656 5652 5648 5644 5639 5635 5631 5627 5622 5618 5614
5740 5740 5740 5739 5738 5737 5735 5734 5732 5730 5728 5725 5722 5720 5717 5714 5711 5707 5704 5700 5696 5692 5688 5684 5680 5676 5671 5667 5662 5658 5654 5649 5645 5641 5637 5633 5629 5625 5621 5617 5613 5609 5605
5735 5734 5733 5732 5731 5730 5728 5726 5724 5722 5720 5717 5714 5711 5708 5705 5701 5698 5694 5690 5686 5682 5677 5673 5669 5665 5660 5656 5651 5647 5643 5638 5634 5630 5626 5622 5619 5615 5611 5607 5604 5600 5596
5728 5728 5727 5725 5724 5723 5721 5719 5716 5714 5711 5708 5705 5702 5699 5695 5691 5688 5684 5680 5676 5672 5667 5663 5658 5654 5649 5644 5640 5636 5632 5628 5624 5620 5617 5613 5609 5606 5602 5599 5596 5592 5589
5722 5721 5720 5718 5717 5715 5713 5711 5708 5705 5702 5699 5696 5693 5689 5686 5682 5678 5674 5670 5666 5662 5658 5653 5648 5644 5639 5635 5630 5626 5622 5618 5615 5611 5608 5604 5601 5598 5595 5592 5589 5586 5582
5716 5714 5713 5711 5709 5707 5705 5702 5699 5696 5693 5690 5687 5684 5680 5676 5673 5669 5665 5661 5657 5653 5648 5644 5639 5635 5631 5626 5622 5618 5614 5611 5607 5604 5600 5597 5594 5591 5588 5585 5582 5580 5576